| time (UTC) | temp F | wind direction | speed knots | gust knots | rain 1hr in | rain 24hr in | rain mn in | humidity % | barometer mb |
| 20260508064601 | 47 | 126 | 0.0 | 0.9 | 0.00 | 0.01 | 0.00 | 82 | 1011.5 |
| 20260508063038 | 48 | 139 | 0.0 | 0.9 | 0.00 | 0.01 | 0.00 | 80 | 1011.5 |
| 20260508061532 | 50 | 158 | 0.0 | 1.7 | 0.00 | 0.01 | 0.00 | 77 | 1011.4 |
| 20260508060028 | 51 | 155 | 0.0 | 2.6 | 0.00 | 0.01 | 0.00 | 75 | 1011.3 |
| 20260508054527 | 52 | 103 | 0.0 | 1.7 | 0.00 | 0.03 | 0.01 | 73 | 1011.2 |
| 20260508053027 | 53 | 70 | 0.9 | 2.6 | 0.00 | 0.03 | 0.01 | 71 | 1011.3 |
| 20260508051527 | 55 | 151 | 1.7 | 5.2 | 0.00 | 0.03 | 0.01 | 65 | 1011.2 |
| 20260508050025 | 56 | 86 | 0.9 | 7.8 | 0.00 | 0.03 | 0.01 | 63 | 1011.1 |
| 20260508044524 | 56 | 111 | 3.5 | 7.0 | 0.00 | 0.03 | 0.01 | 63 | 1011.0 |
| 20260508043024 | 56 | 96 | 4.3 | 7.8 | 0.00 | 0.03 | 0.01 | 63 | 1010.7 |
| 20260508041522 | 57 | 105 | 4.3 | 8.7 | 0.00 | 0.03 | 0.01 | 61 | 1010.7 |
| 20260508040022 | 57 | 106 | 3.5 | 7.0 | 0.00 | 0.03 | 0.01 | 62 | 1010.6 |
| 20260508034521 | 59 | 97 | 3.5 | 8.7 | 0.00 | 0.03 | 0.01 | 60 | 1010.5 |
| 20260508033021 | 59 | 98 | 4.3 | 7.0 | 0.00 | 0.03 | 0.01 | 59 | 1010.3 |
| 20260508031520 | 61 | 117 | 1.7 | 5.2 | 0.00 | 0.03 | 0.01 | 58 | 1010.1 |
| 20260508030020 | 61 | 101 | 1.7 | 5.2 | 0.00 | 0.03 | 0.01 | 58 | 1009.9 |
| 20260508024525 | 63 | 193 | 0.0 | 0.0 | 0.00 | 0.03 | 0.01 | 55 | 1009.7 |
| 20260508023030 | 66 | 188 | 0.0 | 0.0 | 0.00 | 0.03 | 0.01 | 48 | 1009.6 |
| 20260508021518 | 70 | 201 | 0.0 | 2.6 | 0.00 | 0.03 | 0.01 | 40 | 1009.7 |
| 20260508020018 | 72 | 199 | 0.0 | 0.9 | 0.00 | 0.03 | 0.01 | 37 | 1009.7 |
| 20260508014519 | 72 | 300 | 0.0 | 2.6 | 0.00 | 0.03 | 0.01 | 37 | 1009.7 |
| 20260508013015 | 72 | 259 | 0.0 | 5.2 | 0.00 | 0.03 | 0.01 | 37 | 1009.6 |
| 20260508011515 | 74 | 214 | 0.9 | 8.7 | 0.00 | 0.03 | 0.01 | 34 | 1009.7 |
| 20260508010014 | 75 | 287 | 0.9 | 4.3 | 0.00 | 0.03 | 0.01 | 33 | 1009.6 |
| 20260508004513 | 75 | 223 | 0.0 | 5.2 | 0.00 | 0.03 | 0.01 | 31 | 1009.6 |
| 20260508003012 | 74 | 305 | 0.9 | 6.1 | 0.00 | 0.03 | 0.01 | 30 | 1009.7 |
| 20260508001511 | 75 | 243 | 2.6 | 7.8 | 0.00 | 0.03 | 0.01 | 28 | 1009.6 |
| 20260508000011 | 76 | 285 | 1.7 | 4.3 | 0.00 | 0.03 | 0.01 | 29 | 1009.6 |
| 20260507234513 | 76 | 205 | 2.6 | 7.8 | 0.00 | 0.03 | 0.01 | 27 | 1009.4 |
| 20260507233009 | 76 | 278 | 1.7 | 6.1 | 0.00 | 0.03 | 0.01 | 27 | 1009.4 |
| 20260507231508 | 76 | 307 | 2.6 | 6.1 | 0.00 | 0.03 | 0.01 | 27 | 1009.5 |
| 20260507230007 | 76 | 270 | 3.5 | 7.8 | 0.00 | 0.03 | 0.01 | 28 | 1009.6 |
| 20260507224513 | 76 | 300 | 4.3 | 9.6 | 0.00 | 0.03 | 0.01 | 30 | 1009.7 |
| 20260507223005 | 76 | 194 | 0.9 | 6.1 | 0.00 | 0.03 | 0.01 | 29 | 1009.8 |
| 20260507221501 | 75 | 257 | 0.9 | 4.3 | 0.00 | 0.03 | 0.01 | 35 | 1009.9 |
| 20260507220001 | 75 | 293 | 0.0 | 2.6 | 0.00 | 0.03 | 0.01 | 35 | 1010.0 |
| 20260507214610 | 74 | 63 | 2.6 | 4.3 | 0.00 | 0.03 | 0.01 | 34 | 1010.2 |
| 20260507213107 | 72 | 309 | 0.0 | 3.5 | 0.00 | 0.03 | 0.01 | 39 | 1010.4 |
| 20260507211555 | 73 | 358 | 0.0 | 2.6 | 0.00 | 0.03 | 0.01 | 40 | 1010.4 |
| 20260507210055 | 72 | 210 | 1.7 | 7.0 | 0.00 | 0.03 | 0.01 | 40 | 1010.5 |
| 20260507204601 | 73 | 109 | 0.9 | 2.6 | 0.00 | 0.03 | 0.01 | 44 | 1010.6 |
| 20260507203052 | 73 | 211 | 0.9 | 4.3 | 0.00 | 0.03 | 0.01 | 39 | 1010.8 |
| 20260507201549 | 72 | 69 | 0.0 | 2.6 | 0.00 | 0.03 | 0.01 | 42 | 1010.7 |
| 20260507200049 | 72 | 37 | 3.5 | 7.8 | 0.00 | 0.03 | 0.01 | 41 | 1010.8 |
| 20260507194547 | 71 | 238 | 0.9 | 4.3 | 0.00 | 0.03 | 0.01 | 40 | 1010.9 |
| 20260507193045 | 71 | 51 | 0.0 | 3.5 | 0.00 | 0.03 | 0.01 | 40 | 1010.9 |
| 20260507191541 | 70 | 182 | 0.9 | 3.5 | 0.00 | 0.03 | 0.01 | 46 | 1011.1 |
| 20260507190042 | 69 | 44 | 0.9 | 4.3 | 0.00 | 0.03 | 0.01 | 47 | 1011.2 |
| 20260507184539 | 69 | 269 | 0.9 | 2.6 | 0.00 | 0.03 | 0.01 | 48 | 1011.6 |
| 20260507183040 | 67 | 297 | 1.7 | 3.5 | 0.00 | 0.03 | 0.01 | 53 | 1011.7 |
| 20260507181532 | 66 | 234 | 0.0 | 3.5 | 0.00 | 0.03 | 0.01 | 58 | 1011.8 |
| 20260507180032 | 64 | 274 | 0.9 | 3.5 | 0.00 | 0.03 | 0.01 | 61 | 1011.9 |
| 20260507174530 | 63 | 283 | 0.9 | 4.3 | 0.00 | 0.03 | 0.01 | 63 | 1011.9 |
| 20260507173025 | 62 | 41 | 0.0 | 2.6 | 0.00 | 0.03 | 0.01 | 68 | 1012.0 |
| 20260507171517 | 60 | 96 | 0.0 | 0.9 | 0.00 | 0.03 | 0.01 | 72 | 1012.1 |
| 20260507170015 | 59 | 205 | 0.0 | 3.5 | 0.00 | 0.03 | 0.01 | 79 | 1012.4 |
| 20260507164517 | 57 | 252 | 0.0 | 1.7 | 0.00 | 0.03 | 0.01 | 80 | 1012.6 |
| 20260507163010 | 55 | 51 | 0.9 | 3.5 | 0.00 | 0.03 | 0.01 | 82 | 1012.7 |
| 20260507161510 | 54 | 56 | 0.0 | 1.7 | 0.00 | 0.03 | 0.01 | 87 | 1013.0 |
| 20260507160008 | 53 | 304 | 0.0 | 1.7 | 0.00 | 0.03 | 0.01 | 86 | 1013.1 |
| 20260507154507 | 52 | 55 | 0.0 | 1.7 | 0.00 | 0.03 | 0.01 | 88 | 1013.3 |
| 20260507153006 | 52 | 101 | 0.0 | 0.9 | 0.00 | 0.03 | 0.01 | 88 | 1013.4 |
| 20260507151505 | 51 | 144 | 0.0 | 0.9 | 0.00 | 0.03 | 0.01 | 89 | 1013.2 |
| 20260507150006 | 50 | 188 | 0.0 | 1.7 | 0.00 | 0.03 | 0.01 | 92 | 1013.2 |
| 20260507144501 | 50 | 124 | 0.0 | 3.5 | 0.00 | 0.03 | 0.01 | 92 | 1013.1 |
| 20260507143102 | 50 | 214 | 0.0 | 2.6 | 0.00 | 0.03 | 0.01 | 92 | 1012.9 |
| 20260507141603 | 49 | 198 | 0.0 | 2.6 | 0.00 | 0.03 | 0.01 | 91 | 1012.8 |
| 20260507140121 | 49 | 97 | 0.0 | 1.7 | 0.00 | 0.03 | 0.01 | 93 | 1012.7 |
| 20260507134557 | 48 | 120 | 0.0 | 0.9 | 0.00 | 0.03 | 0.01 | 94 | 1012.6 |
| 20260507133057 | 47 | 55 | 0.0 | 1.7 | 0.00 | 0.03 | 0.01 | 93 | 1012.7 |
| 20260507131607 | 47 | 101 | 0.0 | 0.9 | 0.00 | 0.03 | 0.01 | 94 | 1012.6 |
| 20260507130106 | 46 | 78 | 0.9 | 1.7 | 0.00 | 0.03 | 0.01 | 92 | 1012.5 |
| 20260507124604 | 47 | 86 | 0.0 | 3.5 | 0.00 | 0.03 | 0.01 | 93 | 1012.2 |
| 20260507123057 | 47 | 110 | 0.0 | 0.9 | 0.00 | 0.03 | 0.01 | 95 | 1012.1 |
| 20260507121549 | 46 | 145 | 0.0 | 0.9 | 0.00 | 0.03 | 0.01 | 95 | 1011.9 |
| 20260507120047 | 46 | 207 | 0.0 | 0.9 | 0.00 | 0.03 | 0.01 | 95 | 1011.9 |
| 20260507114548 | 45 | 222 | 0.0 | 0.9 | 0.00 | 0.03 | 0.01 | 95 | 1011.8 |
| 20260507113044 | 45 | 150 | 0.0 | 0.9 | 0.00 | 0.03 | 0.01 | 95 | 1011.6 |
| 20260507111545 | 45 | 130 | 0.0 | 0.9 | 0.00 | 0.03 | 0.01 | 93 | 1011.6 |
| 20260507110039 | 46 | 295 | 0.0 | 0.9 | 0.00 | 0.03 | 0.01 | 94 | 1011.4 |
| 20260507104539 | 46 | 45 | 0.0 | 0.9 | 0.00 | 0.03 | 0.01 | 94 | 1011.2 |
| 20260507103036 | 46 | 118 | 0.0 | 0.9 | 0.00 | 0.03 | 0.01 | 94 | 1011.0 |
| 20260507101541 | 47 | 114 | 0.0 | 0.9 | 0.00 | 0.03 | 0.01 | 94 | 1011.0 |
| 20260507100035 | 47 | 205 | 0.0 | 0.0 | 0.00 | 0.03 | 0.01 | 94 | 1011.1 |
| 20260507094530 | 48 | 214 | 0.0 | 0.9 | 0.00 | 0.03 | 0.01 | 95 | 1011.2 |
| 20260507093037 | 48 | 120 | 0.0 | 0.0 | 0.00 | 0.03 | 0.01 | 93 | 1011.2 |
| 20260507091526 | 48 | 70 | 0.0 | 0.0 | 0.00 | 0.03 | 0.01 | 94 | 1011.0 |
| 20260507090030 | 49 | 70 | 0.0 | 0.9 | 0.00 | 0.03 | 0.01 | 91 | 1010.9 |
| 20260507084519 | 50 | 65 | 0.0 | 0.0 | 0.00 | 0.03 | 0.01 | 89 | 1010.8 |
| 20260507083032 | 51 | 65 | 0.0 | 0.0 | 0.00 | 0.03 | 0.01 | 90 | 1010.9 |
| 20260507081514 | 52 | 65 | 0.0 | 0.9 | 0.00 | 0.03 | 0.01 | 90 | 1010.8 |
| 20260507080010 | 53 | 65 | 0.0 | 0.0 | 0.00 | 0.03 | 0.01 | 89 | 1010.7 |
| 20260507074523 | 53 | 63 | 0.0 | 1.7 | 0.00 | 0.03 | 0.01 | 88 | 1010.4 |
| 20260507073006 | 54 | 98 | 0.0 | 2.6 | 0.01 | 0.03 | 0.01 | 85 | 1010.3 |
| 20260507071505 | 54 | 106 | 0.0 | 2.6 | 0.01 | 0.03 | 0.01 | 85 | 1010.2 |
| 20260507070005 | 55 | 82 | 1.7 | 4.3 | 0.01 | 0.03 | 0.01 | 82 | 1010.2 |